Home   Weather   Columbus   Past weeks
Flag for USA

Past Weather in Columbus, Kansas, USA — Yesterday and Last 2 Weeks

Now
49 °F

Clear.


Feels Like: 48 °F
Forecast: 54 / 29 °F
Wind: 3 mph from Southwest

Location: Joplin Regional Airport

Current Time: Dec 9, 2019 at 12:12:49 pm

Latest Report: Dec 9, 2019 at 5:53 am


Visibility: 8 mi

Pressure: 29.56 "Hg

Humidity: 97%

Dew Point: 48 °F

Location of ColumbusLocation

Past Weather in Columbus — Graph

°F

Columbus Temperature Yesterday

Maximum temperature yesterday: 56 °F (at 10:53 am)
Minimum temperature yesterday: 45 °F (at 12:53 am)
Average temperature yesterday: 51 °F

High & Low Weather Summary for the Past Weeks

 TemperatureHumidityPressure
High70 °F (Nov 26, 12:53 pm)100% (Nov 29, 6:53 pm)30.48 "Hg (Nov 29, 6:53 pm)
Low23 °F (Dec 7, 6:53 am)33% (Nov 26, 8:53 pm)29.37 "Hg (Nov 26, 1:53 pm)
Average45 °F71%29.97 "Hg
* Reported Nov 24 5:53 am — Dec 9 5:53 am, Columbus. Weather by CustomWeather, © 2019

Note: Actual official high and low records may vary slightly from our data, if they occured in-between our weather recording intervals... More about our weather records

Columbus Weather History for the Previous 24 Hours

Scroll right to see more
 ConditionsComfort  
Time TempWeatherWind HumidityBarometerVisibility
5:53 am
Mon, Dec 9
49 °FClear.3 mph97%29.56 "Hg8 mi
5:36 am47 °FFog.No wind97%29.56 "Hg2 mi
4:53 am48 °FFog.7 mph93%29.56 "Hg6 mi
4:22 am46 °FFog.6 mph96%29.57 "Hg4 mi
3:53 am46 °FFog.3 mph96%29.57 "Hg4 mi
2:53 am49 °FClear.3 mph93%29.58 "Hg7 mi
1:53 am50 °FClear.8 mph89%29.58 "Hg8 mi
12:53 am49 °FClear.7 mph90%29.61 "Hg8 mi
11:53 pm
Sun, Dec 8
50 °FClear.8 mph83%29.62 "Hg9 mi
11:21 pm51 °FPassing clouds.9 mph83%29.65 "Hg9 mi
10:53 pm52 °FOvercast.13 mph80%29.65 "Hg10 mi
9:53 pm52 °FPassing clouds.15 mph80%29.67 "Hg10 mi
9:44 pm52 °FPassing clouds.13 mph80%29.68 "Hg10 mi
8:53 pm52 °FOvercast.13 mph80%29.70 "Hg10 mi
7:53 pm52 °FOvercast.16 mph77%29.72 "Hg10 mi
6:53 pm52 °FOvercast.15 mph77%29.73 "Hg10 mi
5:53 pm52 °FOvercast.15 mph75%29.72 "Hg10 mi
4:53 pm52 °FOvercast.12 mph77%29.74 "Hg10 mi
3:53 pm53 °FOvercast.16 mph74%29.75 "Hg10 mi
2:53 pm54 °FOvercast.15 mph72%29.75 "Hg10 mi
1:53 pm55 °FOvercast.21 mph69%29.78 "Hg10 mi
12:53 pm56 °FOvercast.21 mph70%29.80 "Hg10 mi
Weather by CustomWeather, © 2019

See weather overview

Advertising